Location: Balaclava NSW 2575, Australia
(34.4510°S, 150.4953°E)
Time: 17:02:32
(UTC+10:00)

Envisat - Pass Details

Date: 22 May 2021
Orbit: 764 x 766 km, 98.1° (Epoch: 18 June)

Event Time Altitude Azimuth Distance (km) Brightness Sun altitude
Rises 17:56:23 0° 177° (S) 3,265 6.1 -11.7°
Reaches altitude 10° 17:58:49 10° 183° (S) 2,332 5.4 -12.2°
Maximum altitude 18:03:37 41° 252° (WSW) 1,105 4.3 -13.2°
Drops below altitude 10° 18:08:22 10° 321° (NW) 2,305 6.3 -14.1°
Sets 18:10:46 0° 328° (NNW) 3,223 7.0 -14.6°
